This demonstration page uses our WeatherBlox Daily Observations layout. Learn more.

Left ArrowRight Arrow

41.12389, -100.76542

Hourly Observations for July 30, 2015

Temp ( °F °C ) Dew Point ( °F °C ) Humidity (%) Winds ( mph kmh ) Pressure ( in mb ) Visibility ( mi km ) Precip ( " mm )
12:53 am 00:53 Clear 59 15 53 11.7 81 81 Calm 30.19 1022 10 16 0.00 0.00
1:53 am 01:53 Clear 57 13.9 53 11.7 87 87 Calm 30.19 1022 10 16 0.00 0.00
2:53 am 02:53 Clear 57 13.9 53 11.7 87 87 Calm 30.19 1022 10 16 0.00 0.00
3:53 am 03:53 Clear 57 13.9 52 11.1 83 83 E 5 7 30.18 1022 10 16 0.00 0.00
4:53 am 04:53 Clear 56 13.3 52 11.1 87 87 Calm 30.18 1022 10 16 0.00 0.00
5:53 am 05:53 Clear 60 15.6 53 11.7 78 78 S 7 11 30.18 1022 10 16 0.00 0.00
6:53 am 06:53 Sunny with Light Rain 56 13.3 52 11.1 87 87 Calm 30.20 1023 10 16 0.00 0.03
7:53 am 07:53 Sunny 62 16.7 56 13.3 80 80 Calm 30.20 1023 10 16 0.00 0.03
8:53 am 08:53 Sunny 68 20 58 14.4 70 70 Calm 30.21 1023 10 16 0.00 0.00
9:53 am 09:53 Sunny 75 23.9 64 17.8 69 69 SSW 8 13 30.20 1023 10 16 0.00 0.00
10:53 am 10:53 Sunny 79 26.1 64 17.8 60 60 VRB 7 11 30.19 1022 10 16 0.00 0.00
11:53 am 11:53 Sunny 82 27.8 61 16.1 49 49 WSW 9 15 30.19 1022 10 16 0.00 0.00
12:53 pm 12:53 Sunny 84 28.9 58 14.4 41 41 WSW 10 17 30.18 1022 10 16 0.00 0.00
1:53 pm 13:53 Sunny 87 30.6 57 13.9 36 36 SW 8 13 30.16 1022 10 16 0.00 0.00
2:53 pm 14:53 Sunny 88 31.1 58 14.4 36 36 S 6 9 30.15 1021 10 16 0.00 0.00
3:53 pm 15:53 Sunny 89 31.7 57 13.9 34 34 S 6 9 30.13 1020 10 16 0.00 0.00
4:53 pm 16:53 Sunny 89 31.7 58 14.4 35 35 SSE 7 11 30.10 1019 10 16 0.00 0.00
5:53 pm 17:53 Sunny 89 31.7 59 15 36 36 S 8 13 30.08 1019 10 16 0.00 0.00
6:53 pm 18:53 Sunny 83 28.3 58 14.4 43 43 S 7 11 30.09 1019 10 16 0.00 0.00
7:53 pm 19:53 Sunny 77 25 64 17.8 64 64 E 6 9 30.10 1019 10 16 0.00 0.00
8:53 pm 20:53 Sunny 74 23.3 64 17.8 71 71 ESE 5 7 30.10 1019 10 16 0.00 0.00
9:53 pm 21:53 Mostly Clear 76 24.4 62 16.7 62 62 S 6 9 30.11 1020 10 16 0.00 0.00
10:53 pm 22:53 Clear 69 20.6 63 17.2 81 81 NNE 3 6 30.13 1020 10 16 0.00 0.00
11:53 pm 23:53 Clear 67 19.4 61 16.1 81 81 Calm 30.13 1020 10 16 0.00 0.00

Powered by AerisWeather